Skip Page Navigation
NASA JPL Caltech
NASA Logo - Jet Propulsion Laboratory + View the NASA Portal
+ Center for Near-Earth Object Studies
JPL Home Earth Solar System Stars & Galaxies Technology
JPL Solar System Dynamics
BODIES ORBITS EPHEMERIDES TOOLS PHYSICAL DATA DISCOVERY FAQ SITE MAP
JPL Small-Body Database Browser
Search: [ help ]  
(2020 MF1)
Classification: Apollo [NEO]          SPK-ID: 54017566
Ephemeris | Orbit Diagram | Orbital Elements | Mission Design | Physical Parameters | Close-Approach Data ]

[ hide orbit diagram ]

For accurate long-term ephemerides, please instead use our Horizons system.This orbit viewer was implemented using two-body methods, and hence should not be used for determining accurate long-term trajectories (over several years or decades) or planetary encounter circumstances.


[ revert to old Java-based viewer ]

Orbital Elements at Epoch 2459020.5 (2020-Jun-20.0) TDB
Reference: JPL 2 (heliocentric ecliptic J2000)
 Element Value Uncertainty (1-sigma)   Units 
e .5222874430837 0.0012279  
a 1.93299669724752 0.0046476 au
q .9234167947528757 0.00015332 au
i 1.081427029927681 0.0017762 deg
node 105.0638737995909 0.0032211 deg
peri 213.8848974168498 0.0012298 deg
M 344.9287637811077 0.060302 deg
tp 2459061.595235247221
(2020-Jul-31.09523525)
0.016217 TDB
period 981.6238345766525
2.69
3.5403
0.009693
d
yr
n .3667392613335007 0.0013227 deg/d
Q 2.942576599742164 0.007075 au
  Orbit Determination Parameters
   # obs. used (total)      15  
   data-arc span      9 days  
   first obs. used      2020-06-17  
   last obs. used      2020-06-26  
   planetary ephem.      DE431  
   SB-pert. ephem.      SB431-N16  
   condition code      8  
   norm. resid. RMS      .55723  
   source      ORB  
   producer      Otto Matic  
   solution date      2020-Jul-03 09:39:15  

Additional Information
 Earth MOID = .00295132 au 
 Jupiter MOID = 2.39644 au 
 T_jup = 3.731 
[ show covariance matrix ]

Ephemeris | Orbit Diagram | Orbital Elements | Mission Design | Physical Parameters | Close-Approach Data ]

Physical Parameter Table
Parameter Symbol Value Units Sigma Reference Notes
absolute magnitude H 27.579   .22086 2 autocmod 2.8

[ show close-approach data ]
Ephemeris | Orbit Diagram | Orbital Elements | Mission Design | Physical Parameters | Close-Approach Data ]
ABOUT SSD CREDITS/AWARDS PRIVACY/COPYRIGHT GLOSSARY LINKS
FirstGov 2020-Jul-16 15:15 UT
(server date/time)  
NASA Home Page
Site Manager:   Ryan S. Park
Webmaster  Alan B. Chamberlin